Location: Fisher's Paradise
(46.5411°N, 80.0984°W)
Time: 16:48:09
(UTC-04:00)

Tiangong 2 - Pass Details

Date: 22 March 2019
Orbit: 378 x 390 km, 42.8° (Epoch: 23 April)

Event Time Altitude Azimuth Distance (km) Brightness Sun altitude
Exits shadow 05:20:22 15° 147° (SSE) 1,136 3.5 -20.8°
Drops below altitude 10° 05:21:10 10° 138° (SE) 1,398 4.1 -20.6°
Sets 05:23:25 0° 125° (SE) 2,252 5.4 -20.3°
